When you browse on this site, cookies collect data to enhance your experience and personalize the content and advertising you see.
Visit our Privacy Policy to learn more. By continuing to use the site, you agree to this use of cookies and data.
  • In France
  • List of Countries
  • For 7 days
  • Water Temperature
  • Weather Map
  • Weather Widgets
  • user-avatar
    Login

    Hourly Weather Kensington

    Today, 1 June, Monday

    Time Temperature Precipitation Wind Pressure Humidity
    00:00 +7°C° 0 mm 5 mps 756 mmHg 73%
    01:00 +6°C° 0 mm 5 mps 756 mmHg 75%
    02:00 +6°C° 0 mm 4 mps 757 mmHg 77%
    03:00 +5°C° 0 mm 4 mps 757 mmHg 77%
    04:00 +5°C° 0 mm 4 mps 757 mmHg 77%
    05:00 +4°C° 0 mm 4 mps 757 mmHg 77%
    06:00 +5°C° 0 mm 4 mps 757 mmHg 73%
    07:00 +6°C° 0 mm 4 mps 758 mmHg 70%
    08:00 +7°C° 0 mm 4 mps 758 mmHg 66%
    09:00 +7°C° 0 mm 4 mps 758 mmHg 64%
    10:00 +8°C° 0 mm 4 mps 758 mmHg 62%
    11:00 +9°C° 0 mm 3 mps 757 mmHg 60%
    12:00 +10°C° 0 mm 3 mps 757 mmHg 59%
    13:00 +10°C° 0 mm 3 mps 757 mmHg 59%
    14:00 +10°C° 0 mm 3 mps 757 mmHg 59%
    15:00 +9°C° 0 mm 3 mps 757 mmHg 62%
    16:00 +9°C° 0 mm 3 mps 757 mmHg 65%
    17:00 +8°C° 0 mm 3 mps 757 mmHg 68%
    18:00 +7°C° 0 mm 3 mps 757 mmHg 72%
    19:00 +5°C° 0 mm 3 mps 757 mmHg 77%
    20:00 +5°C° 0 mm 2 mps 757 mmHg 81%
    21:00 +5°C° 0 mm 2 mps 757 mmHg 82%
    22:00 +5°C° 0 mm 2 mps 757 mmHg 83%
    23:00 +5°C° 0 mm 2 mps 757 mmHg 84%

    Tomorrow, 2 June, Tuesday

    Time Temperature Precipitation Wind Pressure Humidity
    00:00 +3°C° 0 mm 3 mps 757 mmHg 83%
    01:00 +3°C° 0 mm 3 mps 757 mmHg 83%
    02:00 +3°C° 0 mm 3 mps 756 mmHg 82%
    03:00 +3°C° 0 mm 4 mps 756 mmHg 82%
    04:00 +3°C° 0 mm 4 mps 756 mmHg 83%
    05:00 +4°C° 0 mm 4 mps 756 mmHg 83%
    06:00 +5°C° 0 mm 5 mps 756 mmHg 79%
    07:00 +6°C° 0 mm 5 mps 756 mmHg 75%
    08:00 +7°C° 0 mm 6 mps 756 mmHg 71%
    09:00 +8°C° 0 mm 6 mps 755 mmHg 68%
    10:00 +8°C° 0 mm 6 mps 755 mmHg 65%
    11:00 +9°C° 0 mm 6 mps 754 mmHg 62%
    12:00 +9°C° 0 mm 5 mps 754 mmHg 59%
    13:00 +10°C° 0 mm 5 mps 754 mmHg 55%
    14:00 +12°C° 0 mm 4 mps 753 mmHg 51%
    15:00 +12°C° 0 mm 4 mps 753 mmHg 52%
    16:00 +11°C° 0 mm 3 mps 753 mmHg 52%
    17:00 +12°C° 0 mm 2 mps 753 mmHg 52%
    18:00 +10°C° 0 mm 2 mps 753 mmHg 56%
    19:00 +8°C° 0 mm 2 mps 753 mmHg 60%
    20:00 +8°C° 0 mm 1 mps 753 mmHg 64%
    21:00 +7°C° 0 mm 2 mps 753 mmHg 67%
    22:00 +7°C° 0 mm 2 mps 753 mmHg 70%
    23:00 +5°C° 0 mm 3 mps 752 mmHg 72%

    Day after tomorrow, 3 June, Wednesday

    Time Temperature Precipitation Wind Pressure Humidity
    00:00 +5°C° 0 mm 3 mps 752 mmHg 73%
    01:00 +5°C° 0 mm 3 mps 752 mmHg 74%
    02:00 +5°C° 0 mm 4 mps 751 mmHg 74%
    03:00 +5°C° 0 mm 4 mps 751 mmHg 74%
    04:00 +5°C° 0 mm 4 mps 751 mmHg 74%
    05:00 +5°C° 0 mm 4 mps 751 mmHg 74%
    06:00 +6°C° 0 mm 4 mps 751 mmHg 72%
    07:00 +8°C° 0 mm 4 mps 750 mmHg 69%
    08:00 +10°C° 0 mm 4 mps 750 mmHg 67%
    09:00 +10°C° 0.3 mm 6 mps 750 mmHg 73%
    10:00 +10°C° 0.3 mm 8 mps 749 mmHg 79%
    11:00 +9°C° 0.3 mm 10 mps 749 mmHg 86%
    12:00 +8°C° 1.3 mm 9 mps 748 mmHg 88%
    13:00 +7°C° 1.3 mm 8 mps 748 mmHg 91%
    14:00 +6°C° 1.3 mm 7 mps 748 mmHg 93%
    15:00 +8°C° 0.8 mm 7 mps 747 mmHg 93%
    16:00 +8°C° 0.8 mm 7 mps 747 mmHg 94%
    17:00 +9°C° 0.8 mm 7 mps 746 mmHg 94%
    18:00 +9°C° 0.1 mm 6 mps 746 mmHg 94%
    19:00 +9°C° 0.1 mm 6 mps 746 mmHg 94%
    20:00 +9°C° 0.1 mm 5 mps 746 mmHg 95%
    21:00 +9°C° 0.2 mm 5 mps 746 mmHg 95%
    22:00 +9°C° 0.2 mm 5 mps 746 mmHg 96%
    23:00 +9°C° 0.2 mm 5 mps 746 mmHg 97%

    4 June, Thursday

    Time Temperature Precipitation Wind Pressure Humidity
    00:00 +10°C° 0.3 mm 4 mps 746 mmHg 97%
    01:00 +10°C° 0.3 mm 4 mps 746 mmHg 98%
    02:00 +10°C° 0.3 mm 4 mps 746 mmHg 98%
    03:00 +10°C° 0.7 mm 4 mps 746 mmHg 98%
    04:00 +10°C° 0.7 mm 3 mps 746 mmHg 98%
    05:00 +10°C° 0.7 mm 3 mps 746 mmHg 99%
    06:00 +11°C° 0.1 mm 3 mps 746 mmHg 97%
    07:00 +11°C° 0.1 mm 3 mps 747 mmHg 96%
    08:00 +12°C° 0.1 mm 4 mps 747 mmHg 95%
    09:00 +13°C° 0 mm 4 mps 748 mmHg 89%
    10:00 +15°C° 0 mm 4 mps 748 mmHg 83%
    11:00 +17°C° 0 mm 4 mps 748 mmHg 77%
    12:00 +18°C° 0 mm 4 mps 748 mmHg 70%
    13:00 +18°C° 0 mm 3 mps 748 mmHg 63%
    14:00 +19°C° 0 mm 3 mps 748 mmHg 55%
    15:00 +19°C° 0 mm 4 mps 749 mmHg 58%
    16:00 +19°C° 0 mm 5 mps 749 mmHg 61%
    17:00 +19°C° 0 mm 6 mps 749 mmHg 63%
    18:00 +17°C° 0 mm 6 mps 750 mmHg 67%
    19:00 +16°C° 0 mm 6 mps 751 mmHg 70%
    20:00 +15°C° 0 mm 6 mps 751 mmHg 74%
    21:00 +14°C° 0 mm 6 mps 752 mmHg 75%
    22:00 +14°C° 0 mm 6 mps 752 mmHg 76%
    23:00 +13°C° 0 mm 6 mps 752 mmHg 77%

    5 June, Friday

    Time Temperature Precipitation Wind Pressure Humidity
    00:00 +12°C° 0 mm 5 mps 753 mmHg 80%
    01:00 +12°C° 0 mm 5 mps 753 mmHg 83%
    02:00 +10°C° 0 mm 5 mps 753 mmHg 86%
    03:00 +10°C° 0 mm 5 mps 753 mmHg 85%
    04:00 +10°C° 0 mm 5 mps 753 mmHg 84%
    05:00 +10°C° 0 mm 5 mps 754 mmHg 84%
    06:00 +12°C° 0 mm 5 mps 754 mmHg 81%
    07:00 +13°C° 0 mm 5 mps 754 mmHg 77%
    08:00 +14°C° 0 mm 6 mps 755 mmHg 74%
    09:00 +15°C° 0 mm 5 mps 754 mmHg 69%
    10:00 +17°C° 0 mm 5 mps 754 mmHg 64%
    11:00 +19°C° 0 mm 5 mps 754 mmHg 58%
    12:00 +20°C° 0 mm 6 mps 753 mmHg 56%
    13:00 +20°C° 0 mm 7 mps 753 mmHg 54%
    14:00 +21°C° 0 mm 7 mps 752 mmHg 51%
    15:00 +21°C° 0 mm 8 mps 752 mmHg 52%
    16:00 +21°C° 0 mm 8 mps 751 mmHg 53%
    17:00 +21°C° 0 mm 8 mps 751 mmHg 54%
    18:00 +18°C° 0.1 mm 8 mps 751 mmHg 61%
    19:00 +17°C° 0.1 mm 7 mps 750 mmHg 68%
    20:00 +16°C° 0.1 mm 7 mps 750 mmHg 74%
    21:00 +15°C° 0.5 mm 7 mps 750 mmHg 81%
    22:00 +15°C° 0.5 mm 7 mps 750 mmHg 88%
    23:00 +14°C° 0.5 mm 7 mps 750 mmHg 96%

    6 June, Saturday

    Time Temperature Precipitation Wind Pressure Humidity
    00:00 +14°C° 0.3 mm 6 mps 750 mmHg 96%
    01:00 +14°C° 0.3 mm 6 mps 750 mmHg 96%
    02:00 +14°C° 0.3 mm 6 mps 750 mmHg 97%
    03:00 +14°C° 0 mm 5 mps 749 mmHg 97%
    04:00 +14°C° 0 mm 5 mps 749 mmHg 97%
    05:00 +14°C° 0 mm 5 mps 749 mmHg 97%
    06:00 +14°C° 0 mm 5 mps 749 mmHg 96%
    07:00 +14°C° 0 mm 5 mps 750 mmHg 95%
    08:00 +15°C° 0 mm 5 mps 750 mmHg 94%
    09:00 +13°C° 0.2 mm 4 mps 750 mmHg 94%
    10:00 +12°C° 0.2 mm 4 mps 751 mmHg 95%
    11:00 +10°C° 0.2 mm 4 mps 751 mmHg 95%
    12:00 +11°C° 0.1 mm 4 mps 751 mmHg 93%
    13:00 +11°C° 0.1 mm 4 mps 751 mmHg 90%
    14:00 +11°C° 0.1 mm 4 mps 751 mmHg 87%
    15:00 +11°C° 0 mm 4 mps 752 mmHg 86%
    16:00 +11°C° 0 mm 4 mps 752 mmHg 85%
    17:00 +11°C° 0 mm 4 mps 753 mmHg 85%
    18:00 +10°C° 0 mm 3 mps 753 mmHg 87%
    19:00 +9°C° 0 mm 3 mps 754 mmHg 89%
    20:00 +8°C° 0 mm 2 mps 754 mmHg 91%
    21:00 +8°C° 0 mm 2 mps 755 mmHg 90%
    22:00 +7°C° 0 mm 3 mps 755 mmHg 88%
    23:00 +7°C° 0 mm 3 mps 755 mmHg 87%
    Show more